This is the latest recevied weather packets stored in our database for station/object F5PQL-4. If no packets are shown the sender has not sent any weather packets the latest 10 day(s).
| Time | Temp. | Humidity | Pressure | Rain* | Wind** | Luminosity | Snow |
|---|---|---|---|---|---|---|---|
| 1777586785 | 17.78° C | 54% | 1021.4 hPa | - | - | - | - |
| 1777585885 | 17.78° C | 54% | 1021.3 hPa | - | - | - | - |
| 1777584985 | 17.78° C | 53% | 1021.2 hPa | - | - | - | - |
| 1777584085 | 18.33° C | 52% | 1021.1 hPa | - | - | - | - |
| 1777583185 | 18.33° C | 51% | 1021.1 hPa | - | - | - | - |
| 1777582284 | 18.33° C | 51% | 1021 hPa | - | - | - | - |
| 1777581384 | 18.89° C | 50% | 1020.8 hPa | - | - | - | - |
| 1777580484 | 18.89° C | 50% | 1020.6 hPa | - | - | - | - |
| 1777579584 | 19.44° C | 49% | 1020.4 hPa | - | - | - | - |
| 1777578684 | 19.44° C | 48% | 1020.4 hPa | - | - | - | - |
| 1777577783 | 20° C | 48% | 1020.1 hPa | - | - | - | - |
| 1777576883 | 20° C | 46% | 1019.9 hPa | - | - | - | - |
| 1777575983 | 20.56° C | 45% | 1019.7 hPa | - | - | - | - |
| 1777575082 | 21.11° C | 43% | 1019.6 hPa | - | - | - | - |
| 1777574182 | 21.67° C | 42% | 1019.2 hPa | - | - | - | - |
| 1777573282 | 22.22° C | 40% | 1019 hPa | - | - | - | - |
| 1777572392 | 23.33° C | 37% | 1018.9 hPa | - | - | - | - |
| 1777571492 | 23.89° C | 36% | 1018.6 hPa | - | - | - | - |
| 1777570592 | 24.44° C | 34% | 1018.5 hPa | - | - | - | - |
| 1777569692 | 25° C | 33% | 1018.3 hPa | - | - | - | - |
| 1777568792 | 25.56° C | 33% | 1018.3 hPa | - | - | - | - |
| 1777567892 | 26.11° C | 33% | 1018.3 hPa | - | - | - | - |
| 1777566992 | 26.11° C | 33% | 1018.2 hPa | - | - | - | - |
| 1777566091 | 27.22° C | 33% | 1018.1 hPa | - | - | - | - |
| 1777565191 | 27.22° C | 32% | 1018.2 hPa | - | - | - | - |
* Rain since midnight (hover to see other rain measurements)
** Current wind speed in m/s (hover to see current wind gust speed)